EW9515 Weather Reports


Display with metric or nautical units.
time (UTC)temp
F
wind
direction
speed
MPH
gust
MPH
rain 1hr
in
rain 24hr
in
rain mn
in
humidity
%
barometer
mb
20260504224930 75 203 1.0 2.0 0.00 0.01 0.00 79 1015.5
20260504223940 75 203 2.0 4.0 0.00 0.01 0.00 80 1015.5
20260504222930 75 203 2.0 3.0 0.00 0.01 0.00 80 1015.5
20260504221929 74 0.0 1.0 0.00 0.01 0.00 83 1015.5
20260504220931 72 203 1.0 2.0 0.00 0.01 0.00 86 1015.4
20260504215929 71 203 2.0 3.0 0.00 0.01 0.00 88 1015.4
20260504214932 70 203 1.0 1.0 0.00 0.01 0.00 91 1015.3
20260504213929 69 180 2.0 3.0 0.00 0.01 0.00 92 1015.4
20260504212930 68 180 1.0 2.0 0.00 0.01 0.00 93 1015.4
20260504211930 68 0.0 1.0 0.00 0.01 0.00 94 1015.3
20260504210934 67 0.0 0.0 0.00 0.01 0.00 94 1015.1
20260504205929 66 0.0 0.0 0.00 0.01 0.00 94 1015.0
20260504204930 66 0.0 1.0 0.00 0.01 0.00 94 1015.0
20260504203929 65 0.0 1.0 0.00 0.01 0.00 94 1014.8
20260504202934 65 0.0 0.0 0.00 0.01 0.00 94 1014.8
20260504201930 66 0.0 1.0 0.00 0.01 0.00 94 1014.7
20260504200929 66 0.0 1.0 0.00 0.01 0.00 93 1014.6
20260504195949 66 180 1.0 1.0 0.00 0.01 0.00 94 1014.4
20260504194930 66 180 1.0 2.0 0.00 0.01 0.00 93 1014.4
20260504193930 66 0.0 0.0 0.00 0.01 0.00 93 1014.3
20260504192932 66 0.0 1.0 0.00 0.01 0.00 93 1014.3
20260504191928 65 180 1.0 1.0 0.00 0.01 0.00 93 1014.1
20260504190928 65 0.0 0.0 0.00 0.01 0.00 93 1014.0
20260504185929 65 0.0 0.0 0.00 0.01 0.00 93 1014.0
20260504184949 66 0.0 1.0 0.00 0.01 0.00 93 1013.9
20260504183929 66 0.0 0.0 0.00 0.01 0.00 93 1013.9
20260504182930 66 0.0 0.0 0.00 0.01 0.00 93 1013.9
20260504181928 66 0.0 0.0 0.00 0.01 0.00 92 1013.9
20260504180930 67 0.0 0.0 0.00 0.01 0.00 92 1013.8
20260504175930 67 180 1.0 1.0 0.00 0.01 0.00 92 1013.9
20260504174948 67 0.0 1.0 0.00 0.01 0.00 92 1013.8
20260504173932 67 0.0 0.0 0.00 0.01 0.00 92 1013.8
20260504172928 68 0.0 0.0 0.00 0.02 0.00 92 1013.8
20260504171929 68 0.0 1.0 0.00 0.02 0.00 92 1013.8
20260504170929 68 0.0 0.0 0.00 0.02 0.00 92 1013.8
20260504151009 68 0.0 1.0 0.00 0.02 0.00 92 1014.4
20260504140931 69 0.0 1.0 0.00 0.02 0.00 91 1014.9
20260504081928 72 90 1.0 1.0 0.00 0.02 0.02 86 1015.2
20260504080929 72 90 1.0 2.0 0.00 0.02 0.02 86 1015.0
20260504045929 78 90 3.0 7.0 0.00 0.02 0.02 76 1014.2
20260504044928 78 68 4.0 7.0 0.00 0.02 0.02 77 1014.0
20260504043934 77 68 4.0 7.0 0.00 0.02 0.02 75 1014.1
20260504042928 78 68 6.0 9.0 0.00 0.02 0.02 74 1014.1
20260504041929 78 135 2.0 3.0 0.00 0.02 0.02 73 1014.1
20260504040928 78 90 5.0 9.0 0.00 0.02 0.02 75 1014.2
20260504035927 78 90 5.0 8.0 0.00 0.02 0.02 73 1014.4
20260504034948 79 90 5.0 9.0 0.00 0.02 0.02 73 1014.4
20260504033928 79 90 3.0 5.0 0.00 0.02 0.02 72 1014.5
20260504032929 80 113 5.0 7.0 0.00 0.02 0.02 71 1014.5
20260504031928 79 113 4.0 5.0 0.00 0.02 0.02 72 1014.5
20260504030948 78 90 6.0 8.0 0.00 0.02 0.02 71 1014.7
20260504025929 78 113 4.0 7.0 0.00 0.02 0.02 73 1014.8
20260504024932 77 68 2.0 4.0 0.00 0.02 0.02 75 1014.9
20260504023935 77 113 5.0 10.0 0.00 0.02 0.02 77 1015.0
20260504022948 77 68 8.0 12.0 0.00 0.02 0.02 76 1015.1
20260504021953 78 68 4.0 7.0 0.00 0.02 0.02 75 1015.3
20260504020948 78 68 4.0 7.0 0.00 0.02 0.02 72 1015.4
20260504015947 77 113 1.0 2.0 0.00 0.02 0.02 73 1015.5
20260504014927 78 68 2.0 4.0 0.00 0.02 0.02 73 1015.7
20260504013955 78 113 2.0 2.0 0.00 0.02 0.02 71 1015.9
20260504013817 78 131 2.0 0.0 0.00 0.02 0.02 71 1015.9
20260504012829 78 90 3.0 6.0 0.00 0.02 0.02 72 1016.0
20260504011819 78 68 4.0 7.0 0.00 0.02 0.02 73 1016.2
20260504010859 78 113 4.0 7.0 0.00 0.02 0.02 73 1016.3
20260504005818 78 135 3.0 5.0 0.00 0.02 0.02 71 1016.4
20260504004818 77 68 5.0 6.0 0.01 0.02 0.02 73 1016.4
20260504003839 76 45 4.0 6.0 0.01 0.02 0.02 75 1016.5
20260504002819 76 90 3.0 6.0 0.01 0.02 0.02 76 1016.6
20260504001818 77 90 3.0 7.0 0.01 0.02 0.02 75 1016.7
20260504000844 76 90 2.0 4.0 0.01 0.02 0.02 76 1016.8
20260503235839 78 68 6.0 9.0 0.01 0.02 0.02 74 1017.0
20260503234819 77 113 1.0 2.0 0.00 0.01 0.01 77 1016.9
20260503233838 76 90 3.0 6.0 0.00 0.01 0.01 81 1016.9
20260503232818 74 158 2.0 3.0 0.00 0.01 0.01 87 1016.8
20260503231839 73 158 4.0 5.0 0.00 0.01 0.01 87 1016.8
20260503230820 72 225 4.0 6.0 0.00 0.01 0.01 88 1016.7
20260503225828 72 158 1.0 3.0 0.00 0.02 0.01 90 1016.9